Starlink 32835

operational
NORAD ID: 63051 Int'l Des: 2025-034 Owner: SPXS Country: US Constellation: starlink
LEOCIRCULAR

Starlink 32835について

説明を読み込み中...

リアルタイム位置

3D地球を読み込み中...

次回通過

高度履歴

Altitude vs Time

uPlot chart will show altitude changes over time

軌道要素

1 63051U 25034Y 26072.21942236 .00023385 00000-0 79895-3 0 9997
2 63051 53.1582 254.7712 0001212 82.4983 277.6155 15.30209307 59444
Epoch: Mar 13, 2026 • Age: 48 hours

現在のステータス

高度 479.3 km
速度 7.63 km/s
衛星直下点 -15.12°S, 101.41°W
打ち上げ日 Feb 18, 2025
運用期間 1 years
タイプ internet

技術仕様

分類 Payload
質量 730.00 kg
乾燥質量 700.00 kg
総質量 730.00 kg
長さ 0.30 m
直径 4.10 m
スパン 29.00 m
形状 Box + pan
製造者 SPXS
バスタイプ Starlink V2M
フェーズステータス In Orbit
所有者/国 SPXS/US

大規模コンステレーション

Loading constellations...